Auburn, IN

3:15 AM EDT on May 24, 2017 (GMT -0400)
Auburn

Weather History for KGWB - April, 2014

Change the Weather History Date:

Tuesday, April 15, 2014

  Actual Average (KFWA) Record (KFWA)
Temperature  
Mean Temperature 28 °F -  
Max Temperature 33 °F 59 °F 85 °F (2002)
Min Temperature 24 °F 39 °F 20 °F (1907)
Degree Days  
Heating Degree Days 36    
Moisture  
Dew Point 17 °F    
Average Humidity 60    
Maximum Humidity 87    
Minimum Humidity 35    
Precipitation  
Precipitation 0.00 in - - ()
Sea Level Pressure  
Sea Level Pressure 30.04 in    
Wind  
Wind Speed 12 mph (NW)    
Max Wind Speed 22 mph    
Max Gust Speed 28 mph    
Visibility 10 miles    
Events Snow    
Averages and records for this station are not official NWS values.
T = Trace of Precipitation, MM = Missing Value Source: NWS Daily Summary

Daily Weather History Graph

Daily Weather History Graph

Search for Another Location

Airport or City:

Trip Planner

Search our weather history database for the weather conditions in past years. The results will help you decide how hot, cold, wet, or windy it might be!

Date:

Astronomy

Apr. 15, 2014 Rise Set
Actual Time 7:00 AM EDT 8:20 PM EDT
Civil Twilight 6:32 AM EDT 8:49 PM EDT
Nautical Twilight 5:57 AM EDT 9:23 PM EDT
Astronomical Twilight 5:21 AM EDT 10:00 PM EDT
Moon 9:01 PM EDT (4/15) 7:08 AM EDT (4/15)
Length of Visible Light 14h 17m
Length of Day
13h 19m
Full, 100% of the Moon is Illuminated
Apr 15
Full
Apr 22
Last Quarter
Apr 29
New
May 6
First Quarter
May 14
Full

Hourly Weather History & Observations

Time (EDT) Temp. Windchill Dew Point Humidity Pressure Visibility Wind Dir Wind Speed Gust Speed Precip Events Conditions
12:15 AM 32.0 °F 22.5 °F 28.4 °F 87% 29.84 in 3.0 mi NNW 12.7 mph 19.6 mph N/A Snow Light Snow
12:35 AM 32.0 °F 23.6 °F 28.4 °F 87% 29.85 in 4.0 mi NW 10.4 mph - N/A Snow Light Snow
1:15 AM 32.0 °F 23.6 °F 28.4 °F 87% 29.85 in 10.0 mi NW 10.4 mph 18.4 mph N/A   Overcast
1:35 AM 32.0 °F 23.0 °F 28.4 °F 87% 29.85 in 10.0 mi NW 11.5 mph 21.9 mph N/A Snow Light Snow
1:55 AM 32.0 °F 23.6 °F 26.6 °F 80% 29.85 in 10.0 mi NW 10.4 mph 21.9 mph N/A   Overcast
2:15 AM 30.2 °F 20.2 °F 26.6 °F 86% 29.86 in 7.0 mi NW 12.7 mph 17.3 mph N/A Snow Light Snow
2:35 AM 30.2 °F 19.8 °F 26.6 °F 86% 29.87 in 10.0 mi NW 13.8 mph 17.3 mph N/A   Mostly Cloudy
2:55 AM 30.2 °F 21.9 °F 26.6 °F 86% 29.86 in 10.0 mi NW 9.2 mph 17.3 mph N/A   Mostly Cloudy
3:15 AM 30.2 °F 20.2 °F 26.6 °F 86% 29.87 in 10.0 mi NW 12.7 mph 17.3 mph N/A   Mostly Cloudy
3:35 AM 30.2 °F 21.3 °F 26.6 °F 86% 29.87 in 10.0 mi NW 10.4 mph 19.6 mph N/A   Overcast
3:55 AM 30.2 °F 20.2 °F 24.8 °F 80% 29.88 in 10.0 mi NW 12.7 mph 18.4 mph N/A   Overcast
4:15 AM 30.2 °F 20.2 °F 26.6 °F 86% 29.89 in 10.0 mi WNW 12.7 mph - N/A   Overcast
4:35 AM 30.2 °F 19.3 °F 24.8 °F 80% 29.89 in 10.0 mi NW 15.0 mph 20.7 mph N/A   Overcast
4:55 AM 30.2 °F 19.8 °F 23.0 °F 75% 29.89 in 10.0 mi NW 13.8 mph 19.6 mph N/A   Overcast
5:15 AM 30.2 °F 20.2 °F 23.0 °F 75% 29.90 in 10.0 mi NW 12.7 mph 21.9 mph N/A   Overcast
5:35 AM 28.4 °F 18.0 °F 21.2 °F 74% 29.91 in 10.0 mi NW 12.7 mph 23.0 mph N/A   Overcast
5:55 AM 28.4 °F 18.0 °F 21.2 °F 74% 29.91 in 10.0 mi NW 12.7 mph 24.2 mph N/A   Overcast
6:15 AM 28.4 °F 18.5 °F 21.2 °F 74% 29.91 in 10.0 mi NNW 11.5 mph 20.7 mph N/A   Scattered Clouds
6:35 AM 28.4 °F 19.1 °F 21.2 °F 74% 29.92 in 10.0 mi NW 10.4 mph 16.1 mph N/A   Scattered Clouds
6:55 AM 26.6 °F 16.8 °F 21.2 °F 80% 29.93 in 10.0 mi NW 10.4 mph - N/A   Scattered Clouds
7:15 AM 26.6 °F 18.2 °F 21.2 °F 80% 29.94 in 10.0 mi NW 8.1 mph - N/A   Clear
7:35 AM 26.6 °F 14.7 °F 19.4 °F 74% 29.95 in 10.0 mi NW 15.0 mph 18.4 mph N/A   Clear
7:55 AM 28.4 °F 17.5 °F 17.6 °F 64% 29.97 in 10.0 mi NW 13.8 mph 25.3 mph N/A   Clear
8:15 AM 28.4 °F 17.0 °F 17.6 °F 64% 29.97 in 10.0 mi NW 15.0 mph 21.9 mph N/A   Clear
8:35 AM 28.4 °F 18.5 °F 17.6 °F 64% 29.98 in 10.0 mi NW 11.5 mph 21.9 mph N/A   Clear
8:55 AM 28.4 °F 17.0 °F 17.6 °F 64% 29.99 in 10.0 mi WNW 15.0 mph 24.2 mph N/A   Clear
9:15 AM 28.4 °F 17.0 °F 17.6 °F 64% 30.00 in 10.0 mi NW 15.0 mph 26.5 mph N/A   Mostly Cloudy
9:35 AM 28.4 °F 15.8 °F 15.8 °F 59% 30.00 in 10.0 mi NW 18.4 mph 25.3 mph N/A   Mostly Cloudy
9:55 AM 30.2 °F 20.2 °F 15.8 °F 55% 30.01 in 10.0 mi NW 12.7 mph 26.5 mph N/A   Scattered Clouds
10:15 AM 30.2 °F 19.3 °F 14.0 °F 51% 30.02 in 10.0 mi NW 15.0 mph 21.9 mph N/A   Scattered Clouds
10:35 AM 30.2 °F 19.8 °F 14.0 °F 51% 30.03 in 10.0 mi NW 13.8 mph 26.5 mph N/A   Mostly Cloudy
10:55 AM 30.2 °F 19.3 °F 14.0 °F 51% 30.03 in 10.0 mi NW 15.0 mph 23.0 mph N/A   Overcast
11:15 AM 30.2 °F 18.5 °F 14.0 °F 51% 30.04 in 10.0 mi NW 17.3 mph 24.2 mph N/A   Overcast
11:35 AM 30.2 °F 18.5 °F 14.0 °F 51% 30.05 in 10.0 mi WNW 17.3 mph 24.2 mph N/A   Overcast
11:55 AM 30.2 °F 20.2 °F 17.6 °F 60% 30.05 in 10.0 mi NW 12.7 mph 20.7 mph N/A   Overcast
12:35 PM 32.0 °F 21.2 °F 12.2 °F 44% 30.06 in 10.0 mi NW 16.1 mph 21.9 mph N/A   Mostly Cloudy
12:55 PM 32.0 °F 19.8 °F 14.0 °F 48% 30.07 in 10.0 mi WNW 20.7 mph 27.6 mph N/A   Mostly Cloudy
1:35 PM 32.0 °F 20.5 °F 14.0 °F 48% 30.08 in 10.0 mi WNW 18.4 mph 24.2 mph N/A   Overcast
2:15 PM 32.0 °F 20.1 °F 14.0 °F 48% 30.08 in 10.0 mi WNW 19.6 mph - N/A   Overcast
2:35 PM 32.0 °F 20.8 °F 14.0 °F 48% 30.09 in 10.0 mi WNW 17.3 mph 25.3 mph N/A   Overcast
2:55 PM 32.0 °F 20.8 °F 12.2 °F 44% 30.10 in 10.0 mi WNW 17.3 mph 21.9 mph N/A   Mostly Cloudy
3:15 PM 32.0 °F 19.8 °F 12.2 °F 44% 30.10 in 10.0 mi WNW 20.7 mph 25.3 mph N/A   Mostly Cloudy
3:35 PM 32.0 °F 23.0 °F 12.2 °F 44% 30.10 in 10.0 mi NW 11.5 mph 19.6 mph N/A   Overcast
3:55 PM 33.8 °F 23.5 °F 14.0 °F 44% 30.10 in 10.0 mi WNW 16.1 mph 23.0 mph N/A   Mostly Cloudy
4:15 PM 33.8 °F 23.2 °F 14.0 °F 44% 30.11 in 10.0 mi West 17.3 mph 27.6 mph N/A   Overcast
4:35 PM 32.0 °F 20.8 °F 12.2 °F 44% 30.11 in 10.0 mi WNW 17.3 mph 25.3 mph N/A   Mostly Cloudy
4:55 PM 32.0 °F 21.2 °F 12.2 °F 44% 30.12 in 10.0 mi WNW 16.1 mph 25.3 mph N/A   Mostly Cloudy
5:15 PM 32.0 °F 21.6 °F 12.2 °F 44% 30.12 in 10.0 mi NW 15.0 mph 23.0 mph N/A   Scattered Clouds
5:35 PM 33.8 °F 21.9 °F 12.2 °F 41% 30.13 in 10.0 mi WNW 21.9 mph 26.5 mph N/A   Scattered Clouds
5:55 PM 32.0 °F 21.2 °F 10.4 °F 41% 30.15 in 10.0 mi WNW 16.1 mph 21.9 mph N/A   Scattered Clouds
6:15 PM 32.0 °F 22.1 °F 10.4 °F 41% 30.15 in 10.0 mi WNW 13.8 mph 24.2 mph N/A   Clear
6:35 PM 32.0 °F 21.6 °F 8.6 °F 38% 30.16 in 10.0 mi WNW 15.0 mph 21.9 mph N/A   Clear
6:55 PM 32.0 °F 21.2 °F 8.6 °F 38% 30.17 in 10.0 mi WNW 16.1 mph 20.7 mph N/A   Clear
7:15 PM 32.0 °F 23.0 °F 8.6 °F 38% 30.17 in 10.0 mi NNW 11.5 mph 17.3 mph N/A   Clear
7:35 PM 32.0 °F 23.6 °F 6.8 °F 35% 30.17 in 10.0 mi NW 10.4 mph 19.6 mph N/A   Clear
7:55 PM 32.0 °F 24.2 °F 8.6 °F 38% 30.18 in 10.0 mi NW 9.2 mph 16.1 mph N/A   Clear
8:15 PM 32.0 °F 26.4 °F 8.6 °F 38% 30.19 in 10.0 mi NW 5.8 mph - N/A   Clear
8:35 PM 30.2 °F 25.4 °F 8.6 °F 40% 30.20 in 10.0 mi NW 4.6 mph - N/A   Clear
8:55 PM 30.2 °F 26.7 °F 10.4 °F 44% 30.21 in 10.0 mi NW 3.5 mph - N/A   Clear
9:15 PM 28.4 °F - 10.4 °F 47% 30.21 in 10.0 mi Calm Calm - N/A   Clear
9:35 PM 28.4 °F - 12.2 °F 51% 30.23 in 10.0 mi Calm Calm - N/A   Clear
9:55 PM 28.4 °F - 10.4 °F 47% 30.23 in 10.0 mi Calm Calm - N/A   Clear
10:15 PM 28.4 °F - 12.2 °F 51% 30.24 in 10.0 mi Calm Calm - N/A   Clear
10:35 PM 28.4 °F - 10.4 °F 47% 30.25 in 10.0 mi Calm Calm - N/A   Clear
10:55 PM 26.6 °F - 15.8 °F 64% 30.25 in 10.0 mi Calm Calm - N/A   Clear
11:15 PM 26.6 °F - 15.8 °F 64% 30.25 in 10.0 mi Calm Calm - N/A   Clear
11:35 PM 24.8 °F - 14.0 °F 64% 30.25 in 10.0 mi Calm Calm - N/A   Clear
11:55 PM 26.6 °F - 17.6 °F 69% 30.25 in 10.0 mi Calm Calm - N/A   Clear